Regional Weather Roundup
Issued by NWS Boston, MA

Current Version | Previous Version | Text Only | Print | Product List | Glossary Off
Versions: 1 2 3 4 5 6 7 8 9 10 11 12 13 14 15 16 17 18 19 20 21 22 23 24 25 26 27 28 29 30 31 32 33 34 35 36 37 38 39 40 41 42 43 44 45 46 47 48 49 50
000 ASUS41 KBOX 230810 RWRBOX REGIONAL WEATHER ROUNDUP NATIONAL WEATHER SERVICE BOSTON/NORTON MA 400 AM EDT SAT JUN 23 2018 NOTE: "FAIR" INDICATES FEW OR NO CLOUDS BELOW 12,000 FEET WITH NO SIGNIFICANT WEATHER AND/OR OBSTRUCTIONS TO VISIBILITY. MAZALL-230900- EASTERN MASSACHUSETTS CITY SKY/WX TMP DP RH WIND PRES REMARKS BOSTON MOCLDY 61 51 70 E3 30.03F BEVERLY FAIR 54 51 90 CALM 30.03S LAWRENCE FAIR 60 50 69 NE3 30.05F BEDFORD FAIR 56 52 86 N3 30.02F BLUE HILL N/A 58 46 64 SE10 30.01F NORWOOD FAIR 55 52 89 CALM 30.01F MARSHFIELD FAIR 61 52 72 CALM 30.02S PLYMOUTH FAIR 58 48 69 CALM 30.02F TAUNTON FAIR 55 53 93 CALM 30.00F NEW BEDFORD FAIR 59 53 80 E7 29.99F $$ MAZALL-230900- CAPE COD AND THE ISLANDS CITY SKY/WX TMP DP RH WIND PRES REMARKS FALMOUTH FAIR 61 52 72 E9 30.02F HYANNIS FAIR 62 52 69 SE6 30.00F CHATHAM FAIR 60 53 77 E7 30.02F PROVINCETOWN FAIR 61 53 75 SE10 30.03F NANTUCKET MOCLDY 58 56 93 E15G22 29.99F MARTHAS VNYRD FAIR 61 50 67 E9 30.00F $$ MAZALL-230900- CENTRAL AND WESTERN MASSACHUSETTS CITY SKY/WX TMP DP RH WIND PRES REMARKS WORCESTER FAIR 58 44 60 SE3 30.02F FITCHBURG FAIR 58 52 80 CALM 30.03F ORANGE LGT RAIN 57 53 86 CALM 30.03F SPRINGFIELD FAIR 57 54 88 NE5 30.00F WESTFIELD FAIR 57 56 96 N3 30.01F NORTH ADAMS FAIR 62 48 60 E7 30.00F PITTSFIELD CLOUDY 59 46 62 CALM 29.99F $$ RIZALL-230900- RHODE ISLAND CITY SKY/WX TMP DP RH WIND PRES REMARKS PROVIDENCE FAIR 61 49 64 NE5 30.00F NEWPORT FAIR 61 49 64 E5 29.99F BLOCK ISLAND CLOUDY 62 54 74 E13 29.97F SMITHFIELD FAIR 58 49 72 CALM 30.01F WESTERLY CLOUDY 61 52 72 NE6 29.98F $$ CTZALL-230900- CONNECTICUT CITY SKY/WX TMP DP RH WIND PRES REMARKS BRADLEY INTL LGT RAIN 58 55 90 N5 30.00F HARTFORD CLOUDY 63 49 60 N6 29.98F BRIDGEPORT CLOUDY 64 52 64 NE13 29.94F DANBURY CLOUDY 58 54 86 VRB5 29.97F GROTON CLOUDY 63 48 58 NE9 29.97F NEW HAVEN CLOUDY 63 49 60 NE7 29.95F CHESTER CLOUDY 59 52 77 NE5 29.98F MERIDEN CLOUDY 62 50 64 N5 29.97F WILLIMANTIC CLOUDY 61 49 64 CALM 30.00F OXFORD CLOUDY 58 51 78 E6 29.98F $$ MEZ002-015-021-024-NHZ003-005-008-011-012-014-VTZ005-008-230900- NORTHERN NEW ENGLAND CITY SKY/WX TMP DP RH WIND PRES REMARKS PORTLAND ME FAIR 56 52 86 CALM 30.04F BANGOR ME MOCLDY 55 50 83 S5 30.03F CONCORD NH FAIR 54 50 86 CALM 30.04S MANCHESTER NH CLOUDY 62 47 57 SE3 30.02F NASHUA NH FAIR 58 51 78 NW3 30.05R PORTSMOUTH NH MOCLDY 56 50 79 CALM 30.02F JAFFREY NH MOCLDY 57 51 80 CALM 30.04F KEENE NH FAIR 57 51 80 CALM 30.02F BURLINGTON VT FAIR 69 53 56 S12G20 29.94F MT. WASHINGTON MOCLDY 48 28 46 S10 N/A $$ NYZ052-076-230900- EASTERN NEW YORK CITY SKY/WX TMP DP RH WIND PRES REMARKS ALBANY CLOUDY 66 47 50 SE5 29.97F NEW YORK CITY CLOUDY 65 56 72 E9 29.92F $$ ANZALL-230900- MARINE OBSERVATIONS STATION/POSITION TIME TEMP WIND PRES VSBY WAVE AIR SEA DIR/SP/G HT/PER (UTC) (F) (DEG/KT/KT) (MB) (MI) (FT/S) BOSTON BUOY 0750 62 62 80/ 4/ 4 1016.6F 1/ 3 BUZZARDS BAY 0700 61 100/ 12/ 12 1016.5F NANTUCKET SOUND 0750 60 65 100/ 14/ 17 1015.7F 1/ 3 MASS BAY-STELLWA 0704 58 59 1015.8F 1/ 8 ISLE OF SHOALS 0800 60 150/ 4/ 4 1016.8F S OF BLOCK IS 0743 62 N/A 4/ 4 $$ ......................KEY......................... SKY/WX - SKY CONDITION/PRESENT WEATHER TMP - TEMPERATURE IN FAHRENHEIT DWPT - DEWPOINT IN FAHRENHEIT RH - RELATIVE HUMIDITY IN PERCENT WIND - DIRECTION AND SPEED IN MPH PRES - MEAN SEA LEVEL PRESSURE IN INCHES OF HG WCI - WIND CHILL INDEX VSB - VISIBILITY IN MILES HX - HEAT INDEX TC - TEMPERATURE IN CELSIUS VRB - VARIABLE WIND DIRECTION N/A - NOT AVAILABLE

USA.gov is the U.S. government's official web portal to all federal, state and local government web resources and services.